Home > Time Zones > World Clock > Weather > U.S.A. > Erie > Past weeks

Flag for U.S.A. Weather past 2 weeks in Erie, Pennsylvania, U.S.A.

Now
49 °F

Clear.


Feels Like: 42 °F
Forecast: 40 / 54 °F
Wind: 22 mph from South

Location: Erie International Airport


UV Index: 3 (Moderate)

Visibility: 10 mi


Pressure: 30.28 "Hg

Humidity: 39%

Dew point: 25 °F

Location of ErieLocation

Historic Weather in Erie

°F

Erie temperature yesterday

Maximum temperature yesterday: 64 °F (at 4:51 PM)
Minimum temperature yesterday: 29 °F (at 1:51 AM)
Average temperature yesterday: 49 °F

Past Weeks' High & Low Weather Summary

 TemperatureHumidityPressure
High80 °F (Apr 13, 3:51 PM)100% (Apr 8, 4:51 AM)30.54 "Hg (Apr 8, 4:51 AM)
Low21 °F (Apr 16, 6:51 AM)21% (Apr 10, 3:51 PM)29.27 "Hg (Apr 8, 3:51 AM)
Average46 °F63%29.95 "Hg
* Reported Apr 3 1:51 AM — Apr 18 1:51 AM, Erie, Weather by CustomWeather, © 2014

Note: Actual official high and low records may vary slightly from our data, if they occured in-between our weather recording intervals... More about our weather records

Advertising

Historic Weather Conditions — Data for Previous 24 hours

 ConditionsComfort  
Time TempWeatherWind HumidityBarometerVisibility
1:51 AM
Apr 18
50 °FClear.16 mph38%30.31 "Hg10 mi
12:51 AM51 °FClear.15 mph36%30.32 "Hg10 mi
11:51 PM
Apr 17
52 °FClear.16 mph37%30.35 "Hg10 mi
10:51 PM53 °FClear.15 mph37%30.33 "Hg10 mi
9:51 PM55 °FClear.12 mph33%30.33 "Hg10 mi
8:51 PM57 °FSunny.6 mph31%30.33 "Hg10 mi
7:51 PM60 °FSunny.8 mph26%30.32 "Hg10 mi
6:51 PM62 °FSunny.9 mph23%30.32 "Hg10 mi
5:51 PM64 °FSunny.10 mph22%30.33 "Hg10 mi
4:51 PM64 °FSunny.16 mph22%30.32 "Hg10 mi
3:51 PM63 °FSunny.10 mph24%30.34 "Hg10 mi
2:51 PM61 °FSunny.13 mph25%30.38 "Hg10 mi
1:51 PM59 °FSunny.9 mph26%30.40 "Hg10 mi
12:51 PM55 °FSunny.16 mph29%30.42 "Hg10 mi
11:51 AM53 °FSunny.15 mph30%30.44 "Hg10 mi
10:51 AM49 °FSunny.21 mph32%30.44 "Hg10 mi
9:51 AM45 °FSunny.24 mph34%30.42 "Hg10 mi
8:51 AM41 °FSunny.24 mph38%30.44 "Hg10 mi
7:51 AM38 °FSunny.22 mph41%30.44 "Hg10 mi
6:51 AM37 °FClear.22 mph41%30.42 "Hg10 mi
5:51 AM37 °FClear.20 mph41%30.42 "Hg10 mi
4:51 AM37 °FClear.9 mph41%30.43 "Hg10 mi
3:51 AM36 °FClear.7 mph42%30.44 "Hg10 mi
Weather by CustomWeather, © 2014

See weather overview